Regional Weather Roundup
Issued by NWS

Home | Current Version | Previous Version | Graphics & Text | Print | Product List | Glossary On
Versions: 1 2 3 4 5 6 7 8 9 10 11 12 13 14 15 16 17 18 19 20 21 22 23 24 25 26 27 28 29 30 31 32 33 34 35 36 37 38 39 40 41 42 43 44 45 46 47 48 49 50
411
ASUS45 KSLC 081810
RWRUT

UTAH REGIONAL WEATHER ROUNDUP
NATIONAL WEATHER SERVICE SALT LAKE CITY UT
1100 AM MST MON FEB 08 2016

UTZ001>011-023>025-081900-

NORTHERN UTAH

CITY           SKY/WX    TMP DP  RH WIND       PRES   REMARKS
BRIGHAM CITY   SUNNY     22  20  91 S3        30.73S
HILL AFB       SUNNY     30  15  53 E8        30.70S WCI  22
LOGAN          FOG       15  13  91 CALM      30.74F VSB 1/4
OGDEN          SUNNY     31  22  69 S6        30.71S WCI  25
PROVO AIRPORT  MOSUNNY   19  18  93 CALM      30.74R HAZE
SALT LAKE CITY PTSUNNY   33  24  69 SW5       30.72S WCI  29
VERNAL         CLOUDY    17  10  74 E6        30.65R WCI   9
WENDOVER       SUNNY     34  25  69 E6        30.74R WCI  29
HEBER CITY     SUNNY     21  19  93 CALM      30.70S FOG
WEST JORDAN    SUNNY     32  23  69 S7        30.71S WCI  26

$$

UTZ012>022-026-027-081900-

SOUTHERN/CENTRAL UTAH

CITY           SKY/WX    TMP DP  RH WIND       PRES   REMARKS
BLANDING       SUNNY     47  18  31 CALM      30.60R
BRYCE CANYON   SUNNY     30  16  56 N7        30.61S WCI  23
CEDAR CITY     SUNNY     30  17  58 CALM      30.63S
DELTA          PTSUNNY   17  15  94 CALM      30.71S
HANKSVILLE     MOSUNNY   27  21  80 CALM      30.66S
MILFORD        MOSUNNY   19  14  81 N7        30.68R WCI  10
MOAB/CYNLANDS  MOSUNNY   24  20  84 NW7       30.63R WCI  16
PRICE          MOSUNNY   29  18  63 CALM      30.58R
ST GEORGE      CLEAR     46  25  42 N5        30.56F
KANAB          SUNNY     55  23  28 E5        30.55S

$$

REGIONAL REPORTS     COLORADO/ARIZONA

CITY           SKY/WX    TMP DP  RH WIND       PRES   REMARKS
CRAIG, CO      CLOUDY    14   6  70 CALM      30.63S
GRAND JUNCTION SUNNY     29  20  69 E5        30.62R WCI  24
RIFLE          SUNNY     25  15  66 CALM      30.63F
MONTROSE       SUNNY     34  17  50 CALM      30.62S
CORTEZ         CLOUDY    38  21  50 NE3       30.51R
PAGE, AZ       SUNNY     40  26  57 NE5       30.58R
GRAND CANYON   SUNNY     51  16  24 E15       30.53R
KINGMAN        SUNNY     57  21  24 N15       30.42F
FLAGSTAFF      SUNNY     47  16  29 NE13G22   30.52S

$$

REGIONAL REPORTS    NEVADA/IDAHO/WYOMING

CITY           SKY/WX    TMP DP  RH WIND       PRES   REMARKS
LAS VEGAS, NV  SUNNY     59  24  26 VRB6      30.43F
ELY            MOSUNNY   20  15  81 S9        30.67S WCI   9
ELKO           MOSUNNY   19  11  70 E5        30.72R WCI  12
POCATELLO, ID  CLOUDY    26  24  92 NE8       30.74S WCI  18
BURLEY         CLOUDY    28  27  96 E12       30.71R FOG     WCI  18
EVANSTON, WY   CLOUDY    24  14  65 N3        30.65R
ROCK SPRINGS   CLOUDY    32  22  66 SW18      30.56S WCI  20
KEMMERER       CLOUDY    34  19  55 S3        30.62F

$$




USA.gov is the U.S. government's official web portal to all federal, state and local government web resources and services.